Date,TemperatureHighF,TemperatureAvgF,TemperatureLowF,DewpointHighF,DewpointAvgF,DewpointLowF,HumidityHigh,HumidityAvg,HumidityLow,PressureMaxIn,PressureMinIn,WindSpeedMaxMPH,WindSpeedAvgMPH,GustSpeedMaxMPH,PrecipitationSumIn
2013-2-1,27,22,18,-100,-100,-100,0,0,100,0.00,40.00,0,-999,0,0.01
2013-2-2,31,22,15,-100,-100,-100,0,0,100,0.00,40.00,0,-999,0,0.01
2013-2-3,35,25,20,-100,-100,-100,0,0,100,0.00,40.00,0,-999,0,0.00
2013-2-4,33,25,21,-100,-100,-100,0,0,100,0.00,40.00,0,-999,0,0.00
2013-2-5,33,26,18,-100,-100,-100,0,0,100,0.00,40.00,0,-999,0,0.00
2013-2-6,29,22,15,-100,-100,-100,0,0,100,0.00,40.00,0,-999,0,0.00
2013-2-7,33,22,14,-100,-100,-100,0,0,100,0.00,40.00,0,-999,0,0.00
2013-2-8,32,23,15,-100,-100,-100,0,0,100,0.00,40.00,0,-999,0,0.01
2013-2-9,24,18,14,-100,-100,-100,0,0,100,0.00,40.00,0,-999,0,0.00
2013-2-10,13,9,2,-100,-100,-100,0,0,100,0.00,40.00,0,-999,0,0.01
2013-2-11,20,11,-1,-100,-100,-100,0,0,100,0.00,40.00,0,-999,0,0.01
2013-2-12,28,19,11,-100,-100,-100,0,0,100,0.00,40.00,0,-999,0,0.01
2013-2-13,28,22,18,-100,-100,-100,0,0,100,0.00,40.00,0,-999,0,0.01
2013-2-14,18,12,7,-100,-100,-100,0,0,100,0.00,40.00,0,-999,0,0.01
2013-2-15,26,18,10,-100,-100,-100,0,0,100,0.00,40.00,0,-999,0,0.03
2013-2-16,38,28,22,-100,-100,-100,0,0,100,0.00,40.00,0,-999,0,0.01
2013-2-17,28,22,13,-100,-100,-100,0,0,100,0.00,40.00,0,-999,0,0.00
2013-2-18,18,13,9,-100,-100,-100,0,0,100,0.00,40.00,0,-999,0,0.00
2013-2-19,38,23,7,-100,-100,-100,0,0,100,0.00,40.00,0,-999,0,0.01
2013-2-20,34,23,11,-100,-100,-100,0,0,100,0.00,40.00,0,-999,0,0.01
2013-2-21,28,15,6,-100,-100,-100,0,0,100,0.00,40.00,0,-999,0,0.00
2013-2-22,23,13,5,-100,-100,-100,0,0,100,0.00,40.00,0,-999,0,0.00
2013-2-23,27,19,12,-100,-100,-100,0,0,100,0.00,40.00,0,-999,0,0.01
2013-2-24,23,14,10,-100,-100,-100,0,0,100,0.00,40.00,0,-999,0,0.01
2013-2-25,35,23,11,-100,-100,-100,0,0,100,0.00,40.00,0,-999,0,0.01
2013-2-26,20,15,11,-100,-100,-100,0,0,100,0.00,40.00,0,-999,0,0.01
2013-2-27,23,14,6,-100,-100,-100,0,0,100,0.00,40.00,0,-999,0,0.01
2013-2-28,26,18,11,-100,-100,-100,0,0,100,0.00,40.00,0,-999,0,0.00